Home > Weather > Vilnius > Past weeks

Flag for Lithuania Past Weather in Vilnius, Lithuania — Yesterday and Last 2 Weeks

Now
66 °F

Broken clouds.


Feels Like: 66 °F
Forecast: 56 / 76 °F
Wind: 8 mph from Northwest

Location: Vilnius Airport

Current Time: Jun 27, 2016 at 7:10:28 AM

Latest Report: Jun 27, 2016 at 6:50 AM


Visibility: N/A

Pressure: 29.89 "Hg

Humidity: 88%

Dew Point: 63 °F

Location of VilniusLocation

Past Weather in Vilnius — Graph

°F

Vilnius Temperature Yesterday

Maximum temperature yesterday: 90 °F (at 3:20 PM)
Minimum temperature yesterday: 68 °F (at 3:50 AM)
Average temperature yesterday: 80 °F

High & Low Weather Summary for the Past Weeks

 TemperatureHumidityPressure
High90 °F (Jun 25, 3:50 PM)100% (Jun 13, 2:50 AM)30.36 "Hg (Jun 13, 2:50 AM)
Low39 °F (Jun 13, 4:50 AM)30% (Jun 13, 4:20 PM)29.50 "Hg (Jun 15, 2:50 PM)
Average66 °F66%29.96 "Hg
* Reported Jun 12 5:20 AM — Jun 27 5:50 AM, Vilnius, Weather by CustomWeather, © 2016

Note: Actual official high and low records may vary slightly from our data, if they occured in-between our weather recording intervals... More about our weather records

Advertising

Vilnius Weather History for the Previous 24 Hours

Scroll right to see more
 ConditionsComfort  
Time TempWeatherWind HumidityBarometerVisibility
5:50 AM
Mon, Jun 27
68 °FPartly sunny.8 mph83%29.89 "HgN/A
5:20 AM68 °FPartly cloudy.7 mph83%29.89 "HgN/A
4:50 AM68 °FClear.8 mph83%29.86 "Hg10 mi
4:20 AM70 °FPassing clouds.7 mph83%29.86 "HgN/A
3:50 AM70 °FClear.5 mph83%29.86 "Hg10 mi
3:20 AM70 °FClear.6 mph83%29.83 "Hg10 mi
2:50 AM70 °FClear.7 mph83%29.86 "Hg10 mi
2:20 AM72 °FClear.8 mph78%29.86 "Hg10 mi
1:50 AM72 °FClear.6 mph78%29.89 "Hg10 mi
1:20 AM72 °FClear.8 mph73%29.89 "Hg10 mi
12:50 AM75 °FPassing clouds.7 mph65%29.89 "HgN/A
12:20 AM73 °FClear.3 mph69%29.89 "Hg10 mi
12:01 AM75 °FClear.3 mph65%29.86 "Hg10 mi
11:20 PM
Sun, Jun 26
79 °FClear.9 mph61%29.89 "Hg10 mi
10:50 PM75 °FSunny.5 mph69%29.86 "Hg10 mi
10:20 PM77 °FSunny.5 mph61%29.89 "Hg10 mi
9:50 PM79 °FSunny.5 mph58%29.89 "Hg10 mi
9:20 PM81 °FSunny.6 mph54%29.89 "Hg10 mi
8:50 PM81 °FSunny.7 mph54%29.89 "Hg10 mi
8:20 PM84 °FSunny.8 mph48%29.89 "Hg10 mi
7:50 PM86 °FSunny.7 mph46%29.89 "Hg10 mi
7:20 PM88 °FSunny.6 mph40%29.89 "Hg10 mi
6:50 PM90 °FPassing clouds.6 mph38%29.89 "HgN/A
6:20 PM90 °FPassing clouds.6 mph36%29.89 "HgN/A
5:50 PM90 °FSunny.8 mph36%29.89 "Hg10 mi
5:20 PM90 °FPassing clouds.8 mph38%29.89 "HgN/A
4:50 PM90 °FPassing clouds.10 mph38%29.89 "HgN/A
4:20 PM90 °FPassing clouds.6 mph38%29.92 "HgN/A
3:50 PM90 °FPassing clouds.6 mph36%29.92 "HgN/A
3:20 PM90 °FPassing clouds.9 mph36%29.95 "HgN/A
2:50 PM88 °FPassing clouds.7 mph35%29.95 "HgN/A
2:20 PM88 °FPassing clouds.12 mph38%29.95 "HgN/A
1:50 PM88 °FPassing clouds.13 mph40%29.95 "HgN/A
1:20 PM88 °FPassing clouds.10 mph38%29.95 "HgN/A
12:50 PM86 °FSunny.12 mph40%29.98 "Hg10 mi
12:20 PM86 °FSunny.13 mph46%29.98 "Hg10 mi
11:50 AM84 °FPassing clouds.16 mph45%29.98 "HgN/A
11:20 AM84 °FSunny.16 mph45%29.98 "Hg10 mi
10:50 AM82 °FPassing clouds.15 mph48%29.98 "HgN/A
10:20 AM82 °FSunny.14 mph48%29.98 "Hg10 mi
9:50 AM81 °FPassing clouds.10 mph51%29.98 "HgN/A
9:20 AM79 °FSunny.12 mph54%29.98 "Hg10 mi
8:50 AM79 °FSunny.10 mph58%29.98 "Hg10 mi
8:20 AM75 °FSunny.8 mph65%29.98 "Hg10 mi
7:50 AM75 °FSunny.8 mph65%30.01 "Hg10 mi
7:20 AM73 °FSunny.7 mph69%30.01 "Hg10 mi
Weather by CustomWeather, © 2016

See weather overviewHow to use our weather pages